Hourly Weather Roundup
Issued by NWS Central Illinois

Home | Current Version | Previous Version | Text Only | Print | Product List | Glossary Off
Versions: 1 2 3 4 5 6 7 8 9 10 11 12 13 14 15 16 17 18 19 20 21 22 23 24 25 26 27 28 29 30 31 32 33 34 35 36 37 38 39 40 41 42 43 44 45 46 47 48 49 50

000
NZUS43 KILX 240210
HWRILX

AREA WEATHER ROUNDUP
NATIONAL WEATHER SERVICE, LINCOLN IL
900 PM CDT WED APR 23 2014


CITY           SKY/WX    TMP DP  RH WIND       PRES   REMARKS
BLOOMINGTON    LGT RAIN  49  39  68 E15       30.02F
CHAMPAIGN      CLOUDY    52  41  66 E7        30.04R
DANVILLE       CLOUDY    55  31  39 E9        30.02F
DECATUR        CLOUDY    55  32  41 E9        30.02R
FLORA          CLOUDY    56  37  47 E6        30.02S
GALESBURG      CLOUDY    50  38  64 E8        29.99S
JACKSONVILLE   MOCLDY    56  31  39 E9        29.99S
LACON          LGT RAIN  49  39  66 E10       29.98F
LAWRENCEVILLE  CLOUDY    59  37  44 NE3       30.04S
LITCHFIELD     CLOUDY    55  35  46 E7        30.00S
$$


CITY           SKY/WX    TMP DP  RH WIND       PRES   REMARKS
LINCOLN        CLOUDY    56  32  40 E12       30.00S
MACOMB         CLOUDY    52  37  56 E10       29.99S
MATTOON        CLOUDY    57  29  34 E7        30.01F
MT CARMEL AP   MOCLDY    59  37  44 E5        30.03F
OLNEY-NOBLE AP CLOUDY    55  36  47 E5        30.02F
PARIS          CLOUDY    56  34  43 E16       30.00F
PEORIA         CLOUDY    55  34  45 E9        30.00S
PONTIAC        DRIZZLE   52  34  50 E15       30.04
RANTOUL        CLOUDY    58  29  33 CALM      30.05S
ROBINSON       CLOUDY    58  41  52 E6        30.05S
SPRINGFIELD    MOCLDY    57  27  31 SE12      30.00S
TAYLORVILLE    CLOUDY    55  32  41 SE6       30.01S
$$

...REGIONAL REPORTS...


CITY           SKY/WX    TMP DP  RH WIND       PRES   REMARKS
CHICAGO O`HARE CLOUDY    42  20  41 E8        30.09F
KANKAKEE       CLOUDY    43  30  60 NE16      30.08F
MOLINE         CLOUDY    48  40  73 E10       29.97F
MOUNT VERNON   CLOUDY    59  32  36 E3        30.02S
PITTSFIELD     MOCLDY    56  35  44 E10       29.96F
QUINCY         MOCLDY    56  31  38 SE15      29.91F
ROCKFORD       LGT RAIN  47  27  45 E17       30.05F
$$


CITY           SKY/WX    TMP DP  RH WIND       PRES   REMARKS
BURLINGTON     CLOUDY    52  37  56 E16G23    29.91F
CEDAR RAPIDS   CLOUDY    45  40  82 SE14      29.92R
DES MOINES     LGT RAIN  50  39  66 SE17G28   29.78F
KIRKSVILLE     MOCLDY    55  35  47 SE14      29.85S
OTTUMWA        CLOUDY    50  36  58 SE16      29.85F
ST LOUIS       CLOUDY    61  32  33 E15       29.97F
$$


CITY           SKY/WX    TMP DP  RH WIND       PRES   REMARKS
TERRE HAUTE    CLOUDY    54  34  46 NE8       30.06S
EVANSVILLE     PTCLDY    58  37  45 N3        30.04R
INDIANAPOLIS   MOCLDY    54  29  38 NE7       30.07R
LAFAYETTE      CLOUDY    52  34  50 CALM      30.08R
MADISON        CLOUDY    46  32  58 SE15      30.03F
MILWAUKEE      CLOUDY    38  21  50 NE7       30.11F WCI  33
$$




USA.gov is the U.S. government's official web portal to all federal, state and local government web resources and services.